Location: Aciu?a
(46.2833°N, 22.4500°E)
Time: 16:41:04
(UTC+00:00)

Cosmos 1455 - Pass Details

Date: 06 June 2022
Orbit: 492 x 515 km, 82.5° (Epoch: 29 June)

Event Time Altitude Azimuth Distance (km) Brightness Sun altitude
Rises 22:37:15 0° 355° (N) 2,587 7.3 -21.0°
Reaches altitude 10° 22:39:24 10° 0° (N) 1,701 6.0 -21.0°
Maximum altitude 22:43:03 53° 78° (ENE) 617 2.6 -20.9°
Enters shadow 22:43:29 49° 106° (ESE) 645 2.5 -20.9°
